contact:dominique.lefevre@mio.osupytheas.fr, maurice.libes@osupytheas.fr, didier.mallarino@osupytheas.fr
Project:EMSO http://www.emso-fr.org/EMSO-France
Depth: 2436.0 m
Title:EMSO Ligure Ouest : Data MII capteur AQUADOPP
Date,Latitude,Longitude,X_East,Y_North,Z_Up,Amplitude_X,Amplitude_Y,Amplitude_Z,Batterie,SoundSpeed,Heading,Pitch,Roll,Pressure,TIS,Speed,Direction
, degrees North, degrees East, m.s-1, m.s-1,m.s-1, 1, 1, 1, Volt, m.s-1, degree, degree, degree, dbar, degree_C, m.s-1, degree
2023-04-06T00:04:03,42.805,6.029,-0.023,0.06,0.02,104.0,110.0,101.0,13.4,1505.2,337.3,-0.8,1.9,2471.267,13.28,0.064,339.0
2023-04-06T00:07:03,42.805,6.029,-0.018,0.034,0.041,102.0,106.0,101.0,13.4,1505.2,321.3,-0.8,1.8,2471.243,13.28,0.038,332.1
2023-04-06T00:10:03,42.805,6.029,-0.029,0.073,0.046,103.0,110.0,102.0,13.4,1505.2,331.0,-0.8,1.8,2471.235,13.29,0.078,338.3
2023-04-06T00:13:03,42.805,6.029,-0.032,0.048,0.006,102.0,106.0,102.0,13.4,1505.2,327.4,-0.8,1.8,2471.229,13.29,0.057,326.3
2023-04-06T00:16:03,42.805,6.029,-0.034,0.06,0.009,102.0,109.0,101.0,13.3,1505.2,336.3,-0.7,1.8,2471.231,13.29,0.068,330.5
2023-04-06T00:19:03,42.805,6.029,-0.046,0.042,0.006,102.0,108.0,103.0,13.4,1505.2,320.7,-0.8,1.8,2471.262,13.29,0.062,312.4
2023-04-06T00:22:03,42.805,6.029,-0.022,0.064,0.032,102.0,108.0,102.0,13.4,1505.2,320.1,-0.8,1.8,2471.242,13.29,0.067,341.0
2023-04-06T00:25:03,42.805,6.029,-0.029,0.069,0.034,103.0,108.0,101.0,13.4,1505.2,318.9,-0.7,1.8,2471.212,13.29,0.074,337.2
2023-04-06T00:28:03,42.805,6.029,-0.021,0.081,0.025,105.0,107.0,101.0,13.3,1505.2,336.6,-0.8,1.8,2471.226,13.29,0.083,345.5
2023-04-06T00:31:03,42.805,6.029,-0.031,0.058,0.019,102.0,108.0,102.0,13.4,1505.2,337.5,-0.8,1.8,2471.2,13.29,0.065,331.9
2023-04-06T00:34:03,42.805,6.029,-0.028,0.054,0.041,103.0,106.0,102.0,13.3,1505.2,321.4,-0.8,1.8,2471.234,13.29,0.06,332.6
2023-04-06T00:37:03,42.805,6.029,-0.011,0.064,0.054,105.0,106.0,102.0,13.3,1505.2,340.4,-0.8,1.8,2471.185,13.29,0.064,350.2
2023-04-06T00:40:03,42.805,6.029,-0.046,0.07,0.02,103.0,107.0,101.0,13.3,1505.2,328.8,-0.7,1.8,2471.163,13.29,0.083,326.7
2023-04-06T00:43:03,42.805,6.029,-0.027,0.069,0.003,103.0,106.0,101.0,13.4,1505.2,344.4,-0.8,1.8,2471.164,13.29,0.074,338.6
2023-04-06T00:46:03,42.805,6.029,-0.019,0.021,0.02,104.0,108.0,100.0,13.3,1505.2,336.6,-0.8,1.8,2471.169,13.29,0.028,317.9
2023-04-06T00:49:03,42.805,6.029,-0.033,0.048,-0.016,102.0,107.0,101.0,13.4,1505.2,324.5,-0.8,1.9,2471.153,13.29,0.058,325.5
2023-04-06T00:52:03,42.805,6.029,-0.038,0.069,0.019,103.0,109.0,102.0,13.4,1505.2,333.4,-0.7,1.8,2471.177,13.29,0.078,331.2
2023-04-06T00:55:03,42.805,6.029,-0.042,0.047,-0.018,104.0,107.0,101.0,13.4,1505.2,322.2,-0.8,1.8,2471.201,13.29,0.063,318.2
2023-04-06T00:58:03,42.805,6.029,-0.045,0.064,0.013,103.0,106.0,101.0,13.3,1505.2,320.0,-0.7,1.8,2471.209,13.29,0.078,324.9
2023-04-06T01:04:03,42.805,6.029,-0.015,0.04,0.026,105.0,109.0,102.0,13.3,1505.2,330.9,-0.8,1.8,2471.22,13.28,0.042,339.4
2023-04-06T01:07:03,42.805,6.029,-0.047,0.086,0.05,103.0,109.0,102.0,13.3,1505.2,324.7,-0.8,1.8,2471.232,13.28,0.098,331.3
2023-04-06T01:10:03,42.805,6.029,-0.031,0.062,0.021,102.0,109.0,102.0,13.4,1505.2,337.5,-0.8,1.9,2471.211,13.28,0.069,333.4
2023-04-06T01:13:03,42.805,6.029,-0.022,0.06,0.007,103.0,106.0,102.0,13.4,1505.2,336.0,-0.7,1.8,2471.251,13.29,0.063,339.9
2023-04-06T01:16:03,42.805,6.029,-0.051,0.097,0.044,103.0,107.0,102.0,13.4,1505.2,333.8,-0.8,1.8,2471.192,13.29,0.109,332.3
2023-04-06T01:19:03,42.805,6.029,-0.044,0.048,-0.002,104.0,107.0,101.0,13.4,1505.2,326.0,-0.8,1.8,2471.178,13.29,0.065,317.5
2023-04-06T01:22:03,42.805,6.029,-0.02,0.077,0.044,102.0,109.0,102.0,13.4,1505.2,337.0,-0.8,1.8,2471.17,13.29,0.079,345.4
2023-04-06T01:25:03,42.805,6.029,-0.04,0.067,0.025,103.0,108.0,102.0,13.4,1505.2,328.2,-0.8,1.8,2471.198,13.29,0.078,329.2
2023-04-06T01:28:03,42.805,6.029,-0.024,0.078,0.038,101.0,110.0,101.0,13.4,1505.2,340.9,-0.7,1.8,2471.177,13.29,0.081,342.9
2023-04-06T01:31:03,42.805,6.029,0.005,0.062,0.019,102.0,108.0,102.0,13.3,1505.2,339.4,-0.7,1.8,2471.187,13.29,0.062,4.6
2023-04-06T01:34:03,42.805,6.029,-0.014,0.065,0.036,103.0,109.0,101.0,13.4,1505.2,334.2,-0.7,1.8,2471.154,13.29,0.066,347.8
2023-04-06T01:37:03,42.805,6.029,-0.074,0.069,0.005,103.0,108.0,101.0,13.4,1505.2,319.4,-0.7,1.8,2471.193,13.29,0.101,313.0
2023-04-06T01:40:03,42.805,6.029,-0.029,0.047,-0.008,105.0,107.0,101.0,13.4,1505.2,334.2,-0.8,1.8,2471.188,13.29,0.055,328.3
2023-04-06T01:43:03,42.805,6.029,-0.036,0.051,0.034,103.0,106.0,102.0,13.4,1505.2,325.5,-0.7,1.8,2471.219,13.29,0.062,324.8
2023-04-06T01:46:03,42.805,6.029,-0.026,0.059,0.004,103.0,109.0,101.0,13.4,1505.2,327.2,-0.8,1.8,2471.163,13.29,0.064,336.2
2023-04-06T01:49:03,42.805,6.029,-0.02,0.053,0.051,102.0,110.0,101.0,13.4,1505.2,332.4,-0.7,1.8,2471.192,13.29,0.056,339.3
2023-04-06T01:52:03,42.805,6.029,-0.015,0.064,0.025,102.0,109.0,100.0,13.4,1505.2,338.3,-0.8,1.8,2471.187,13.29,0.065,346.8
2023-04-06T01:55:03,42.805,6.029,-0.003,0.049,0.026,103.0,109.0,102.0,13.4,1505.2,342.5,-0.8,1.8,2471.179,13.29,0.049,356.5
2023-04-06T01:58:03,42.805,6.029,-0.059,0.055,0.014,102.0,108.0,101.0,13.4,1505.2,323.4,-0.8,1.8,2471.178,13.29,0.08,313.0
2023-04-06T02:04:03,42.805,6.029,-0.02,0.048,0.011,102.0,108.0,101.0,13.4,1505.2,329.0,-0.8,1.8,2471.212,13.28,0.052,337.4
2023-04-06T02:07:03,42.805,6.029,-0.022,0.05,0.034,101.0,110.0,101.0,13.4,1505.2,325.0,-0.8,1.8,2471.216,13.28,0.054,336.3
2023-04-06T02:10:03,42.805,6.029,-0.022,0.048,0.019,104.0,108.0,101.0,13.3,1505.2,338.0,-0.7,1.8,2471.244,13.29,0.052,335.4
2023-04-06T02:13:03,42.805,6.029,-0.041,0.044,0.022,105.0,106.0,102.0,13.4,1505.2,326.5,-0.7,1.8,2471.188,13.29,0.06,317.0
2023-04-06T02:16:03,42.805,6.029,-0.023,0.065,0.042,102.0,106.0,101.0,13.3,1505.2,340.9,-0.8,1.8,2471.212,13.29,0.068,340.5
2023-04-06T02:19:03,42.805,6.029,-0.052,0.055,0.024,103.0,107.0,101.0,13.4,1505.2,320.7,-0.7,1.8,2471.262,13.29,0.075,316.6
2023-04-06T02:22:03,42.805,6.029,-0.034,0.04,0.009,104.0,106.0,101.0,13.4,1505.2,333.9,-0.7,1.8,2471.189,13.29,0.052,319.6
2023-04-06T02:25:03,42.805,6.029,-0.068,0.044,0.023,102.0,107.0,102.0,13.4,1505.2,325.5,-0.7,1.8,2471.222,13.29,0.08,302.9
2023-04-06T02:28:03,42.805,6.029,-0.023,0.062,0.028,103.0,107.0,102.0,13.4,1505.2,336.2,-0.7,1.8,2471.16,13.29,0.066,339.6
2023-04-06T02:31:03,42.805,6.029,-0.026,0.09,0.031,102.0,108.0,101.0,13.4,1505.2,333.8,-0.8,1.8,2471.18,13.29,0.093,343.9
2023-04-06T02:34:03,42.805,6.029,-0.019,0.071,0.005,103.0,106.0,102.0,13.4,1505.2,332.9,-0.8,1.8,2471.195,13.29,0.073,345.0
2023-04-06T02:37:03,42.805,6.029,-0.042,0.071,0.0,102.0,107.0,101.0,13.3,1505.2,329.0,-0.8,1.8,2471.202,13.29,0.082,329.4
2023-04-06T02:40:03,42.805,6.029,-0.027,0.063,0.026,103.0,106.0,101.0,13.3,1505.2,327.1,-0.8,1.8,2471.183,13.29,0.068,336.8
2023-04-06T02:43:03,42.805,6.029,-0.031,0.052,0.005,102.0,109.0,101.0,13.4,1505.2,336.1,-0.8,1.8,2471.153,13.29,0.06,329.2
2023-04-06T02:46:03,42.805,6.029,-0.023,0.089,0.062,102.0,109.0,101.0,13.4,1505.2,340.9,-0.8,1.8,2471.214,13.29,0.091,345.5
2023-04-06T02:49:03,42.805,6.029,-0.038,0.067,0.02,102.0,106.0,101.0,13.4,1505.2,331.0,-0.8,1.8,2471.184,13.29,0.077,330.4
2023-04-06T02:52:03,42.805,6.029,-0.04,0.048,-0.002,103.0,108.0,101.0,13.4,1505.2,324.3,-0.8,1.8,2471.198,13.29,0.062,320.2
2023-04-06T02:55:03,42.805,6.029,-0.035,0.074,0.047,104.0,106.0,103.0,13.4,1505.2,331.4,-0.8,1.8,2471.157,13.29,0.081,334.7
2023-04-06T02:58:03,42.805,6.029,-0.021,0.037,0.004,103.0,108.0,102.0,13.4,1505.2,335.4,-0.8,1.8,2471.198,13.29,0.042,330.4
2023-04-06T03:04:03,42.805,6.029,-0.033,0.074,0.024,103.0,106.0,102.0,13.3,1505.2,332.6,-0.8,1.8,2471.256,13.28,0.081,336.0
2023-04-06T03:07:03,42.805,6.029,-0.06,0.063,0.014,101.0,108.0,101.0,13.4,1505.2,324.0,-0.8,1.8,2471.239,13.28,0.086,316.4
2023-04-06T03:10:03,42.805,6.029,-0.039,0.043,0.002,102.0,108.0,102.0,13.4,1505.2,318.8,-0.8,1.8,2471.231,13.29,0.058,317.8
2023-04-06T03:13:03,42.805,6.029,-0.011,0.069,0.014,101.0,107.0,102.0,13.3,1505.2,327.0,-0.8,1.8,2471.232,13.29,0.069,350.9
2023-04-06T03:16:03,42.805,6.029,-0.03,0.058,0.009,103.0,107.0,102.0,13.4,1505.2,327.0,-0.7,1.9,2471.244,13.29,0.065,332.6
2023-04-06T03:19:03,42.805,6.029,-0.045,0.038,0.034,102.0,108.0,102.0,13.4,1505.2,321.1,-0.8,1.8,2471.208,13.29,0.058,310.2
2023-04-06T03:22:03,42.805,6.029,-0.061,0.06,-0.003,102.0,106.0,101.0,13.4,1505.2,326.7,-0.8,1.8,2471.22,13.29,0.085,314.5
2023-04-06T03:25:03,42.805,6.029,-0.029,0.072,0.041,105.0,107.0,103.0,13.4,1505.2,321.9,-0.7,1.8,2471.198,13.29,0.077,338.1
2023-04-06T03:28:03,42.805,6.029,-0.016,0.079,0.013,103.0,107.0,101.0,13.4,1505.2,326.0,-0.7,1.8,2471.207,13.29,0.08,348.6
2023-04-06T03:31:03,42.805,6.029,-0.039,0.055,-0.002,103.0,109.0,101.0,13.4,1505.2,325.8,-0.8,1.8,2471.23,13.29,0.067,324.7
2023-04-06T03:34:03,42.805,6.029,-0.016,0.059,0.004,102.0,106.0,101.0,13.4,1505.2,335.1,-0.8,1.8,2471.231,13.29,0.061,344.8
2023-04-06T03:37:03,42.805,6.029,-0.059,0.08,0.03,101.0,107.0,100.0,13.4,1505.2,326.3,-0.8,1.8,2471.207,13.29,0.099,323.6
2023-04-06T03:40:03,42.805,6.029,-0.025,0.055,-0.017,102.0,109.0,101.0,13.4,1505.2,327.9,-0.8,1.8,2471.226,13.29,0.06,335.6
2023-04-06T03:43:03,42.805,6.029,-0.014,0.059,0.006,104.0,106.0,101.0,13.3,1505.2,339.0,-0.8,1.8,2471.198,13.29,0.06,346.7
2023-04-06T03:46:03,42.805,6.029,-0.038,0.066,0.017,103.0,107.0,100.0,13.3,1505.2,329.9,-0.8,1.8,2471.251,13.29,0.076,330.1
2023-04-06T03:49:03,42.805,6.029,-0.046,0.056,0.016,103.0,106.0,100.0,13.4,1505.2,333.0,-0.8,1.8,2471.217,13.29,0.072,320.6
2023-04-06T03:52:03,42.805,6.029,-0.048,0.058,0.015,101.0,107.0,101.0,13.4,1505.2,330.6,-0.8,1.8,2471.249,13.29,0.075,320.4
2023-04-06T03:55:03,42.805,6.029,-0.051,0.045,0.037,103.0,105.0,102.0,13.3,1505.2,327.9,-0.8,1.8,2471.2,13.29,0.068,311.4
2023-04-06T03:58:03,42.805,6.029,-0.049,0.069,0.046,101.0,108.0,101.0,13.4,1505.2,323.8,-0.8,1.8,2471.239,13.29,0.084,324.6
2023-04-06T04:04:03,42.805,6.029,-0.037,0.06,-0.016,103.0,105.0,102.0,13.3,1505.2,333.9,-0.8,1.8,2471.231,13.28,0.07,328.3
2023-04-06T04:07:03,42.805,6.029,-0.051,0.038,0.014,103.0,106.0,102.0,13.4,1505.2,324.2,-0.8,1.8,2471.293,13.28,0.063,306.7
2023-04-06T04:10:03,42.805,6.029,-0.028,0.08,0.031,102.0,108.0,101.0,13.4,1505.2,322.2,-0.8,1.8,2471.293,13.29,0.084,340.7
2023-04-06T04:13:03,42.805,6.029,-0.018,0.057,0.038,101.0,108.0,101.0,13.3,1505.2,329.9,-0.8,1.8,2471.302,13.29,0.059,342.5
2023-04-06T04:16:03,42.805,6.029,-0.007,0.048,0.024,101.0,108.0,100.0,13.4,1505.2,343.7,-0.8,1.8,2471.265,13.29,0.048,351.7
2023-04-06T04:19:03,42.805,6.029,-0.037,0.065,0.017,102.0,109.0,100.0,13.3,1505.2,324.8,-0.8,1.8,2471.26,13.29,0.074,330.3
2023-04-06T04:22:03,42.805,6.029,-0.038,0.079,0.052,100.0,108.0,100.0,13.4,1505.2,340.6,-0.8,1.8,2471.249,13.29,0.087,334.3
2023-04-06T04:25:03,42.805,6.029,-0.025,0.046,0.016,102.0,107.0,100.0,13.3,1505.2,331.8,-0.8,1.8,2471.26,13.29,0.052,331.5
2023-04-06T04:28:03,42.805,6.029,-0.041,0.046,0.0,102.0,107.0,100.0,13.4,1505.2,324.3,-0.8,1.9,2471.291,13.29,0.061,318.3
2023-04-06T04:31:03,42.805,6.029,-0.025,0.055,0.023,102.0,107.0,99.0,13.3,1505.2,340.9,-0.8,1.8,2471.301,13.29,0.06,335.6
2023-04-06T04:34:03,42.805,6.029,-0.027,0.079,0.046,102.0,106.0,99.0,13.3,1505.2,338.7,-0.7,1.8,2471.258,13.29,0.083,341.1
2023-04-06T04:37:03,42.805,6.029,-0.025,0.07,0.035,101.0,107.0,100.0,13.4,1505.2,318.9,-0.8,1.8,2471.305,13.29,0.074,340.4
2023-04-06T04:40:03,42.805,6.029,-0.011,0.068,0.038,102.0,105.0,100.0,13.4,1505.2,337.3,-0.7,1.8,2471.282,13.29,0.068,350.8
2023-04-06T04:43:03,42.805,6.029,-0.026,0.058,0.028,102.0,107.0,100.0,13.3,1505.2,318.1,-0.8,1.8,2471.314,13.29,0.063,335.9
2023-04-06T04:46:03,42.805,6.029,-0.03,0.075,0.01,102.0,108.0,100.0,13.4,1505.2,340.8,-0.8,1.8,2471.287,13.29,0.08,338.2
2023-04-06T04:49:03,42.805,6.029,-0.039,0.068,0.022,101.0,108.0,100.0,13.4,1505.2,323.8,-0.8,1.8,2471.306,13.29,0.078,330.2
2023-04-06T04:52:03,42.805,6.029,-0.023,0.04,0.011,102.0,106.0,100.0,13.4,1505.2,330.7,-0.7,1.8,2471.335,13.29,0.046,330.1
2023-04-06T04:55:03,42.805,6.029,-0.027,0.059,0.02,103.0,104.0,100.0,13.3,1505.2,335.7,-0.8,1.8,2471.307,13.29,0.064,335.4
2023-04-06T04:58:03,42.805,6.029,-0.013,0.05,0.011,101.0,106.0,101.0,13.4,1505.2,331.5,-0.8,1.8,2471.265,13.29,0.051,345.4
2023-04-06T05:04:03,42.805,6.029,-0.045,0.084,0.035,102.0,105.0,100.0,13.4,1505.2,330.3,-0.8,1.8,2471.389,13.28,0.095,331.8
2023-04-06T05:07:03,42.805,6.029,-0.023,0.05,0.014,101.0,107.0,100.0,13.4,1505.2,335.9,-0.7,1.8,2471.386,13.29,0.055,335.3
2023-04-06T05:10:03,42.805,6.029,-0.033,0.062,0.03,101.0,105.0,101.0,13.3,1505.2,318.1,-0.7,1.8,2471.347,13.29,0.07,332.0
2023-04-06T05:13:03,42.805,6.029,-0.033,0.05,0.02,102.0,107.0,100.0,13.4,1505.2,325.4,-0.7,1.8,2471.332,13.29,0.059,326.6
2023-04-06T05:16:03,42.805,6.029,-0.046,0.049,-0.002,103.0,106.0,100.0,13.4,1505.2,320.7,-0.8,1.8,2471.365,13.29,0.067,316.8
2023-04-06T05:19:03,42.805,6.029,-0.024,0.052,0.017,101.0,108.0,101.0,13.3,1505.2,329.0,-0.7,1.8,2471.352,13.29,0.057,335.2
2023-04-06T05:22:03,42.805,6.029,-0.037,0.083,0.049,101.0,109.0,100.0,13.3,1505.2,329.9,-0.8,1.9,2471.357,13.29,0.09,336.0
2023-04-06T05:25:03,42.805,6.029,-0.03,0.052,0.008,101.0,104.0,100.0,13.3,1505.2,321.3,-0.7,1.8,2471.355,13.29,0.06,330.0
2023-04-06T05:28:03,42.805,6.029,-0.03,0.047,0.018,100.0,108.0,101.0,13.4,1505.2,332.9,-0.7,1.8,2471.372,13.29,0.055,327.4
2023-04-06T05:31:03,42.805,6.029,-0.046,0.039,-0.027,102.0,103.0,100.0,13.4,1505.2,323.6,-0.8,1.8,2471.349,13.29,0.06,310.3
2023-04-06T05:34:03,42.805,6.029,-0.041,0.048,0.0,103.0,103.0,101.0,13.4,1505.2,331.9,-0.7,1.8,2471.342,13.29,0.063,319.5
2023-04-06T05:37:03,42.805,6.029,-0.038,0.054,0.001,102.0,104.0,101.0,13.4,1505.2,322.5,-0.7,1.8,2471.379,13.29,0.066,324.9
2023-04-06T05:40:03,42.805,6.029,-0.025,0.048,-0.013,101.0,105.0,101.0,13.4,1505.2,337.5,-0.7,1.7,2471.357,13.29,0.054,332.5
2023-04-06T05:43:03,42.805,6.029,-0.013,0.032,-0.043,101.0,106.0,100.0,13.4,1505.2,330.9,-0.7,1.8,2471.386,13.29,0.034,337.9
2023-04-06T05:46:03,42.805,6.029,-0.031,0.057,-0.003,103.0,106.0,101.0,13.3,1505.2,343.3,-0.8,1.9,2471.328,13.29,0.064,331.5
2023-04-06T05:49:03,42.805,6.029,-0.014,0.059,-0.001,103.0,107.0,101.0,13.4,1505.2,333.9,-0.7,1.8,2471.372,13.29,0.06,346.7
2023-04-06T05:52:03,42.805,6.029,-0.048,0.024,-0.039,104.0,106.0,101.0,13.4,1505.2,320.5,-0.8,1.8,2471.358,13.29,0.053,296.6
2023-04-06T05:55:03,42.805,6.029,-0.025,0.036,0.02,101.0,106.0,100.0,13.4,1505.2,323.4,-0.8,1.8,2471.394,13.29,0.043,325.2
2023-04-06T05:58:03,42.805,6.029,-0.038,0.051,0.009,102.0,105.0,101.0,13.4,1505.2,325.3,-0.8,1.8,2471.377,13.29,0.063,323.3
2023-04-06T06:04:03,42.805,6.029,-0.03,0.063,-0.008,102.0,102.0,102.0,13.4,1505.2,340.0,-0.7,1.8,2471.357,13.28,0.069,334.5
2023-04-06T06:07:03,42.805,6.029,-0.049,0.055,-0.007,104.0,105.0,101.0,13.4,1505.2,331.0,-0.8,1.8,2471.4,13.29,0.073,318.3
2023-04-06T06:10:03,42.805,6.029,-0.005,0.059,0.003,104.0,104.0,101.0,13.3,1505.2,337.3,-0.8,1.8,2471.404,13.29,0.059,355.2
2023-04-06T06:13:03,42.805,6.029,0.004,0.046,0.017,102.0,106.0,100.0,13.4,1505.2,339.4,-0.8,1.8,2471.394,13.29,0.046,5.0
2023-04-06T06:16:03,42.805,6.029,-0.021,0.064,0.013,100.0,110.0,100.0,13.4,1505.2,333.9,-0.8,1.8,2471.455,13.29,0.067,341.8
2023-04-06T06:19:03,42.805,6.029,-0.046,0.035,-0.007,102.0,103.0,101.0,13.4,1505.2,329.6,-0.8,1.8,2471.398,13.29,0.057,307.3
2023-04-06T06:22:03,42.805,6.029,-0.042,0.027,-0.022,105.0,103.0,101.0,13.4,1505.2,319.2,-0.8,1.8,2471.384,13.29,0.049,302.7
2023-04-06T06:25:03,42.805,6.029,-0.053,0.04,0.007,102.0,102.0,101.0,13.4,1505.2,325.5,-0.8,1.8,2471.394,13.29,0.066,307.0
2023-04-06T06:28:03,42.805,6.029,-0.056,0.053,0.01,103.0,104.0,101.0,13.4,1505.2,332.4,-0.8,1.8,2471.408,13.29,0.077,313.4
2023-04-06T06:31:03,42.805,6.029,-0.023,0.065,0.007,102.0,104.0,101.0,13.4,1505.2,337.3,-0.7,1.8,2471.366,13.29,0.068,340.5
2023-04-06T06:34:03,42.805,6.029,-0.01,0.027,0.0,102.0,103.0,101.0,13.4,1505.2,333.0,-0.8,1.8,2471.428,13.29,0.028,339.7
2023-04-06T06:37:03,42.805,6.029,-0.04,0.032,-0.021,101.0,104.0,100.0,13.3,1505.2,322.7,-0.8,1.8,2471.394,13.29,0.051,308.7
2023-04-06T06:40:03,42.805,6.029,-0.036,0.046,-0.007,101.0,106.0,100.0,13.3,1505.2,331.3,-0.7,1.8,2471.394,13.29,0.058,322.0
2023-04-06T06:43:03,42.805,6.029,-0.033,0.02,-0.033,101.0,103.0,100.0,13.3,1505.2,322.5,-0.8,1.8,2471.44,13.29,0.038,301.2
2023-04-06T06:46:03,42.805,6.029,-0.008,0.036,-0.008,103.0,102.0,100.0,13.4,1505.2,334.4,-0.8,1.8,2471.374,13.29,0.036,347.5
2023-04-06T06:49:03,42.805,6.029,-0.023,0.039,0.004,102.0,105.0,100.0,13.4,1505.2,322.4,-0.8,1.8,2471.385,13.29,0.045,329.5
2023-04-06T06:52:03,42.805,6.029,-0.05,0.061,0.0,100.0,105.0,102.0,13.4,1505.2,332.5,-0.7,1.8,2471.423,13.29,0.078,320.7
2023-04-06T06:55:03,42.805,6.029,-0.013,0.035,-0.004,102.0,102.0,101.0,13.4,1505.2,328.8,-0.8,1.8,2471.445,13.29,0.037,339.6
2023-04-06T06:58:03,42.805,6.029,-0.026,0.027,0.012,102.0,102.0,100.0,13.3,1505.2,324.5,-0.7,1.8,2471.411,13.29,0.037,316.1
2023-04-06T07:04:03,42.805,6.029,-0.076,0.022,-0.05,102.0,105.0,100.0,13.4,1505.2,319.6,-0.8,1.8,2471.434,13.28,0.079,286.1
2023-04-06T07:07:03,42.805,6.029,-0.051,0.039,-0.028,107.0,104.0,100.0,13.4,1505.2,331.2,-0.8,1.8,2471.478,13.29,0.064,307.4
2023-04-06T07:10:03,42.805,6.029,-0.031,0.077,0.043,102.0,105.0,101.0,13.4,1505.2,327.9,-0.7,1.8,2471.443,13.29,0.083,338.1
2023-04-06T07:13:03,42.805,6.029,-0.023,0.037,0.006,102.0,104.0,101.0,13.4,1505.2,331.2,-0.8,1.8,2471.43,13.29,0.043,328.1
2023-04-06T07:16:03,42.805,6.029,-0.034,0.054,0.015,102.0,106.0,101.0,13.4,1505.2,322.2,-0.8,1.8,2471.437,13.29,0.063,327.8
2023-04-06T07:19:03,42.805,6.029,-0.012,0.033,0.01,102.0,105.0,101.0,13.4,1505.2,324.9,-0.8,1.8,2471.45,13.29,0.035,340.0
2023-04-06T07:22:03,42.805,6.029,-0.019,0.046,0.016,101.0,105.0,100.0,13.4,1505.2,332.4,-0.8,1.8,2471.443,13.29,0.049,337.6
2023-04-06T07:25:02,42.805,6.029,0.001,0.047,0.047,102.0,104.0,100.0,13.4,1505.2,341.2,-0.8,1.8,2471.433,13.29,0.047,1.2
2023-04-06T07:28:03,42.805,6.029,-0.029,0.037,0.011,102.0,103.0,101.0,13.3,1505.2,323.4,-0.7,1.8,2471.375,13.29,0.047,321.9
2023-04-06T07:31:02,42.805,6.029,-0.044,0.024,-0.022,102.0,103.0,100.0,13.4,1505.2,326.5,-0.8,1.8,2471.417,13.29,0.05,298.6
2023-04-06T07:34:02,42.805,6.029,-0.025,0.06,-0.028,102.0,102.0,102.0,13.4,1505.2,344.4,-0.8,1.8,2471.414,13.29,0.064,337.4
2023-04-06T07:37:02,42.805,6.029,-0.006,0.049,0.003,102.0,105.0,101.0,13.4,1505.2,342.2,-0.8,1.8,2471.389,13.29,0.049,353.0
2023-04-06T07:40:02,42.805,6.029,-0.049,0.075,0.044,102.0,106.0,100.0,13.4,1505.2,335.0,-0.8,1.8,2471.417,13.29,0.089,326.8
2023-04-06T07:43:02,42.805,6.029,-0.036,0.051,-0.003,102.0,103.0,101.0,13.4,1505.2,335.9,-0.8,1.8,2471.419,13.29,0.062,324.8
2023-04-06T07:46:02,42.805,6.029,-0.035,0.025,0.012,103.0,104.0,102.0,13.4,1505.2,322.4,-0.8,1.8,2471.377,13.29,0.043,305.5
2023-04-06T07:49:02,42.805,6.029,-0.043,0.057,-0.006,103.0,104.0,101.0,13.3,1505.2,325.3,-0.8,1.8,2471.381,13.29,0.071,323.0
2023-04-06T07:52:02,42.805,6.029,-0.013,0.05,-0.007,103.0,105.0,101.0,13.4,1505.2,343.9,-0.8,1.8,2471.394,13.29,0.051,345.4
2023-04-06T07:55:03,42.805,6.029,-0.044,0.069,0.0,102.0,104.0,101.0,13.4,1505.2,331.4,-0.7,1.8,2471.395,13.29,0.081,327.5
2023-04-06T07:58:03,42.805,6.029,-0.01,0.033,-0.005,103.0,105.0,101.0,13.4,1505.2,343.9,-0.8,1.8,2471.382,13.29,0.034,343.1
2023-04-06T08:04:02,42.805,6.029,-0.026,0.038,0.008,101.0,104.0,100.0,13.3,1505.2,323.3,-0.8,1.8,2471.445,13.28,0.046,325.6
2023-04-06T08:07:02,42.805,6.029,-0.036,0.026,-0.011,101.0,103.0,100.0,13.3,1505.2,328.8,-0.8,1.8,2471.41,13.29,0.044,305.8
2023-04-06T08:10:03,42.805,6.029,-0.024,0.044,0.015,101.0,104.0,100.0,13.4,1505.2,324.3,-0.7,1.8,2471.458,13.29,0.05,331.4
2023-04-06T08:13:03,42.805,6.029,-0.029,0.031,-0.033,101.0,103.0,100.0,13.4,1505.2,323.8,-0.8,1.8,2471.404,13.29,0.042,316.9
2023-04-06T08:16:03,42.805,6.029,-0.031,0.029,-0.032,103.0,100.0,100.0,13.4,1505.2,328.1,-0.8,1.8,2471.374,13.29,0.042,313.1
2023-04-06T08:19:03,42.805,6.029,-0.034,0.03,-0.022,101.0,103.0,102.0,13.4,1505.2,326.3,-0.8,1.8,2471.419,13.29,0.045,311.4
2023-04-06T08:22:02,42.805,6.029,-0.032,0.027,-0.017,102.0,103.0,100.0,13.3,1505.2,326.3,-0.7,1.8,2471.405,13.29,0.041,310.2
2023-04-06T08:25:03,42.805,6.029,-0.039,0.052,0.015,100.0,105.0,100.0,13.4,1505.2,323.1,-0.8,1.8,2471.377,13.29,0.064,323.1
2023-04-06T08:28:03,42.805,6.029,-0.061,0.045,-0.017,101.0,102.0,101.0,13.4,1505.2,325.0,-0.8,1.8,2471.38,13.29,0.075,306.4
2023-04-06T08:31:03,42.805,6.029,-0.02,0.039,-0.009,101.0,103.0,100.0,13.4,1505.2,343.9,-0.8,1.8,2471.367,13.29,0.043,332.9
2023-04-06T08:34:03,42.805,6.029,-0.043,0.037,-0.034,101.0,105.0,101.0,13.3,1505.2,331.9,-0.7,1.8,2471.394,13.29,0.056,310.7
2023-04-06T08:37:02,42.805,6.029,-0.034,0.042,-0.009,102.0,104.0,101.0,13.4,1505.2,336.5,-0.8,1.8,2471.342,13.29,0.054,321.0
2023-04-06T08:40:03,42.805,6.029,-0.038,0.047,-0.003,103.0,103.0,100.0,13.3,1505.2,344.4,-0.7,1.8,2471.391,13.29,0.06,321.0
2023-04-06T08:43:03,42.805,6.029,-0.029,0.034,-0.018,102.0,102.0,101.0,13.3,1505.2,326.0,-0.8,1.8,2471.399,13.29,0.044,319.5
2023-04-06T08:46:03,42.805,6.029,-0.028,0.038,0.006,102.0,103.0,101.0,13.3,1505.2,338.8,-0.7,1.8,2471.36,13.29,0.047,323.6
2023-04-06T08:49:03,42.805,6.029,-0.04,0.03,-0.018,102.0,103.0,101.0,13.4,1505.2,321.8,-0.8,1.8,2471.406,13.29,0.05,306.9
2023-04-06T08:52:03,42.805,6.029,-0.024,0.036,-0.018,102.0,103.0,101.0,13.3,1505.2,332.9,-0.7,1.8,2471.335,13.29,0.043,326.3
2023-04-06T08:55:03,42.805,6.029,-0.015,0.051,-0.001,103.0,104.0,101.0,13.3,1505.2,339.4,-0.8,1.8,2471.345,13.29,0.053,343.6
2023-04-06T08:58:03,42.805,6.029,-0.031,0.03,-0.014,102.0,102.0,100.0,13.4,1505.2,339.6,-0.7,1.8,2471.382,13.29,0.043,314.1
2023-04-06T09:04:02,42.805,6.029,-0.016,0.042,0.02,103.0,105.0,101.0,13.4,1505.2,333.0,-0.8,1.8,2471.387,13.29,0.044,339.1
2023-04-06T09:07:03,42.805,6.029,-0.02,0.045,-0.025,102.0,103.0,101.0,13.4,1505.2,343.7,-0.8,1.8,2471.379,13.29,0.049,336.0
2023-04-06T09:10:03,42.805,6.029,-0.023,0.029,-0.033,102.0,103.0,101.0,13.4,1505.2,321.8,-0.8,1.8,2471.401,13.29,0.037,321.6
2023-04-06T09:13:03,42.805,6.029,-0.033,0.042,-0.023,103.0,103.0,101.0,13.3,1505.2,331.0,-0.8,1.8,2471.364,13.29,0.053,321.8
2023-04-06T09:16:03,42.805,6.029,-0.034,0.043,-0.015,101.0,103.0,101.0,13.4,1505.2,316.7,-0.8,1.8,2471.403,13.29,0.054,321.7
2023-04-06T09:19:03,42.805,6.029,-0.019,0.018,0.01,102.0,104.0,101.0,13.3,1505.2,333.4,-0.8,1.8,2471.371,13.29,0.026,313.5
2023-04-06T09:22:03,42.805,6.029,-0.028,0.039,-0.027,102.0,104.0,102.0,13.4,1505.2,334.3,-0.8,1.8,2471.377,13.29,0.048,324.3
2023-04-06T09:25:03,42.805,6.029,-0.021,0.031,-0.025,104.0,103.0,101.0,13.4,1505.2,337.9,-0.8,1.8,2471.346,13.29,0.037,325.9
2023-04-06T09:28:03,42.805,6.029,-0.031,0.048,0.014,104.0,102.0,100.0,13.4,1505.2,321.9,-0.8,1.8,2471.31,13.29,0.057,327.1
2023-04-06T09:31:03,42.805,6.029,-0.022,0.029,-0.025,102.0,103.0,101.0,13.4,1505.2,336.6,-0.8,1.8,2471.353,13.29,0.036,322.8
2023-04-06T09:34:03,42.805,6.029,-0.025,0.047,-0.004,102.0,103.0,102.0,13.4,1505.2,334.8,-0.8,1.8,2471.352,13.29,0.053,332.0
2023-04-06T09:37:03,42.805,6.029,-0.033,0.013,-0.035,103.0,103.0,101.0,13.4,1505.2,316.1,-0.7,1.8,2471.326,13.29,0.035,291.5
2023-04-06T09:40:03,42.805,6.029,-0.04,0.047,-0.015,102.0,104.0,101.0,13.4,1505.2,330.4,-0.8,1.8,2471.313,13.29,0.061,319.6
2023-04-06T09:43:03,42.805,6.029,-0.044,0.02,-0.024,102.0,103.0,101.0,13.4,1505.2,322.5,-0.8,1.8,2471.328,13.29,0.048,294.4
2023-04-06T09:46:03,42.805,6.029,-0.012,0.024,-0.041,103.0,103.0,101.0,13.3,1505.2,342.1,-0.8,1.8,2471.321,13.29,0.026,333.4
2023-04-06T09:49:03,42.805,6.029,-0.032,0.036,0.0,103.0,104.0,101.0,13.4,1505.2,320.7,-0.7,1.8,2471.343,13.29,0.048,318.4
2023-04-06T09:52:03,42.805,6.029,-0.043,0.024,0.018,104.0,103.0,102.0,13.4,1505.2,323.8,-0.8,1.8,2471.319,13.29,0.049,299.2
2023-04-06T09:55:03,42.805,6.029,-0.04,0.038,-0.017,102.0,103.0,102.0,13.3,1505.2,330.1,-0.8,1.8,2471.309,13.29,0.055,313.5
2023-04-06T09:58:03,42.805,6.029,-0.019,0.035,0.007,104.0,103.0,101.0,13.4,1505.2,319.0,-0.7,1.8,2471.361,13.29,0.039,331.5